This is the latest recevied weather packets stored in our database for station/object N1ORT. If no packets are shown the sender has not sent any weather packets the latest 1 day(s).
| Time | Temp. | Humidity | Pressure | Rain* | Wind** | Luminosity | Snow |
|---|---|---|---|---|---|---|---|
| 1778029560 | 21.67° C | 49% | 1007.3 hPa | 0 mm | 2.24 m/s, 238° | 0 W/m² | - |
| 1778029256 | 21.67° C | 49% | 1007.1 hPa | 0 mm | 1.79 m/s, 284° | 0 W/m² | - |
| 1778028954 | 21.67° C | 49% | 1006.6 hPa | 0 mm | 1.79 m/s, 288° | 0 W/m² | - |
| 1778028649 | 22.22° C | 49% | 1006.4 hPa | 0 mm | 0 m/s | 0 W/m² | - |
| 1778028347 | 21.67° C | 49% | 1006.2 hPa | 0 mm | 0.89 m/s, 276° | 0 W/m² | - |
| 1778028047 | 22.22° C | 47% | 1006.2 hPa | 0 mm | 0.89 m/s, 279° | 0 W/m² | - |
| 1778027739 | 22.22° C | 47% | 1006.1 hPa | 0 mm | 0.89 m/s, 320° | 0 W/m² | - |
| 1778027435 | 22.22° C | 47% | 1005.8 hPa | 0 mm | 0.89 m/s, 97° | 0 W/m² | - |
| 1778027126 | 22.78° C | 46% | 1005.7 hPa | 0 mm | 1.34 m/s, 301° | 0 W/m² | - |
| 1778026822 | 22.78° C | 47% | 1005.7 hPa | 0 mm | 3.58 m/s, 268° | 0 W/m² | - |
| 1778026519 | 22.78° C | 46% | 1005.5 hPa | 0 mm | 0.45 m/s, 282° | 0 W/m² | - |
| 1778026216 | 22.78° C | 46% | 1005.5 hPa | 0 mm | 2.24 m/s, 248° | 0 W/m² | - |
| 1778025914 | 22.78° C | 46% | 1005.3 hPa | 0 mm | 1.79 m/s, 309° | 0 W/m² | - |
| 1778025611 | 22.78° C | 46% | 1005.1 hPa | 0 mm | 2.24 m/s, 280° | 1 W/m² | - |
| 1778025309 | 23.33° C | 45% | 1005.2 hPa | 0 mm | 1.34 m/s, 286° | 1 W/m² | - |
| 1778025005 | 23.33° C | 44% | 1005.3 hPa | 0 mm | 1.34 m/s, 295° | 2 W/m² | - |
| 1778024702 | 23.33° C | 44% | 1005 hPa | 0 mm | 1.79 m/s, 100° | 4 W/m² | - |
| 1778024399 | 23.33° C | 45% | 1005.1 hPa | 0 mm | 1.79 m/s, 250° | 7 W/m² | - |
| 1778024096 | 23.89° C | 44% | 1004.8 hPa | 0 mm | 1.79 m/s, 262° | 11 W/m² | - |
| 1778023794 | 23.89° C | 44% | 1004.7 hPa | 0 mm | 0.89 m/s, 127° | 14 W/m² | - |
| 1778023492 | 23.89° C | 44% | 1004.5 hPa | 0 mm | 1.79 m/s, 266° | 16 W/m² | - |
| 1778023189 | 23.89° C | 44% | 1004.6 hPa | 0 mm | 0 m/s | 18 W/m² | - |
| 1778022886 | 23.89° C | 44% | 1004.5 hPa | 0 mm | 1.34 m/s, 296° | 20 W/m² | - |
| 1778022584 | 24.44° C | 43% | 1004.4 hPa | 0 mm | 1.34 m/s, 18° | 23 W/m² | - |
| 1778022281 | 24.44° C | 43% | 1004.3 hPa | 0 mm | 1.34 m/s, 105° | 27 W/m² | - |
* Rain latest hour (hover to see other rain measurements)
** Current wind speed in m/s (hover to see current wind gust speed)